WP4MXZ San Sebastian PR US current weather conditions

sailwx.info

Wind from 074 at 0 knots gusting 5

Air temperature 30.6° C
Dewpoint 26.7° C

Last reported at 2014-Oct-20 16:34 UTC.
Time now 2014-Oct-20 18:00 UTC

Location: N 18°20' W 067°00'.
View on Google Maps.

See reports from other nearby stations

  
Tides and Currents Weather Stations Pressure Air Temp Water Temp Dewpoint Dewpoint Depression Visibility Wind Speed Wind Dir Waves Ship Positions
date/time (UTC)wind fromknots sea level pressurealtimeterstation pressurevisibilityair tempwater tempwave heightnotes
2014-Oct-20 16:34 074 0 gusting 5 30.6
2014-Oct-20 16:03 120 1 gusting 7 31.1
2014-Oct-20 15:33 161 2 gusting 6 31.1
2014-Oct-20 15:03 146 3 gusting 6 30.6
2014-Oct-20 14:33 181 2 gusting 7 30.6
2014-Oct-20 14:03 189 2 gusting 6 29.4
2014-Oct-20 13:33 135 2 gusting 6 28.9
2014-Oct-20 13:03 198 28.3
2014-Oct-20 12:33 198 26.7
2014-Oct-20 12:03 198 23.9
2014-Oct-20 11:33 197 22.2
2014-Oct-20 11:03 198 21.1
2014-Oct-20 10:33 198 20.6
2014-Oct-20 10:04 197 20.6
2014-Oct-20 09:33 198 20.6
2014-Oct-20 09:03 198 20.6
2014-Oct-20 08:33 198 20.6
2014-Oct-20 08:04 198 21.1
2014-Oct-20 07:33 198 21.1
2014-Oct-20 07:03 198 21.1
2014-Oct-20 06:33 198 21.1
2014-Oct-20 06:03 198 21.1
2014-Oct-20 05:33 198 21.7
2014-Oct-20 05:03 198 21.7
2014-Oct-20 04:33 198 21.7
2014-Oct-20 04:03 198 21.7
2014-Oct-20 03:34 198 21.7
2014-Oct-20 03:03 198 22.2
2014-Oct-20 02:33 198 22.2
2014-Oct-20 02:03 198 22.8
2014-Oct-20 01:34 198 22.8
2014-Oct-20 01:04 183 23.3
2014-Oct-20 00:33 203 23.3
2014-Oct-20 00:03 195 23.9
2014-Oct-19 23:33 207 23.9
2014-Oct-19 23:03 192 2 gusting 5 24.4
2014-Oct-19 22:33 240 3 gusting 4 24.4
2014-Oct-19 22:04 231 25.0
2014-Oct-19 21:33 210 0 gusting 4 26.1
2014-Oct-19 21:03 178 25.6
2014-Oct-19 20:33 204 0 gusting 5 25.6
2014-Oct-19 20:03 181 1 gusting 5 26.7
2014-Oct-19 19:34 260 2 gusting 9 27.2
2014-Oct-19 19:03 274 1 gusting 4 29.4
2014-Oct-19 18:33 058 0 gusting 7 30.0
2014-Oct-19 18:04 049 31.1
2014-Oct-19 17:34 055 1 gusting 6 31.7
2014-Oct-19 17:04 141 32.2
2014-Oct-19 16:34 118 3 gusting 6 32.2
2014-Oct-19 16:04 180 2 gusting 6 31.7
2014-Oct-19 15:34 185 31.7
2014-Oct-19 15:03 214 2 gusting 4 31.1
2014-Oct-19 14:33 175 1 gusting 6 30.0
2014-Oct-19 14:03 117 2 29.4
2014-Oct-19 13:33 185 28.3
2014-Oct-19 13:03 185 27.8
2014-Oct-19 12:33 185 26.7
2014-Oct-19 12:03 185 25.0
2014-Oct-19 11:33 185 23.3
2014-Oct-19 11:03 185 21.1
2014-Oct-19 10:33 185 21.1
2014-Oct-19 10:03 184 21.1
2014-Oct-19 09:33 185 21.1
2014-Oct-19 09:03 185 21.1
2014-Oct-19 08:33 185 21.1
2014-Oct-19 08:04 185 21.7
2014-Oct-19 07:33 185 21.7
2014-Oct-19 07:03 185 21.7
2014-Oct-19 06:33 185 21.7
2014-Oct-19 06:03 184 21.7
2014-Oct-19 05:33 185 22.2
2014-Oct-19 05:03 185 22.2
2014-Oct-19 04:33 185 22.2
2014-Oct-19 04:03 185 22.8
2014-Oct-19 03:33 185 22.8
2014-Oct-19 03:04 185 22.8
2014-Oct-19 02:33 185 22.8
2014-Oct-19 02:03 185 22.8
2014-Oct-19 01:33 185 23.3
2014-Oct-19 01:04 185 23.9
2014-Oct-19 00:34 217 23.3
2014-Oct-19 00:04 217 23.3
2014-Oct-18 23:34 183 23.9
2014-Oct-18 23:03 183 23.9
2014-Oct-18 22:33 195 0 24.4
2014-Oct-18 22:03 240 0 24.4
2014-Oct-18 21:33 239 25.0
2014-Oct-18 21:04 188 25.6
2014-Oct-18 20:33 335 26.1
2014-Oct-18 20:03 335 25.6
2014-Oct-18 19:33 336 25.6
2014-Oct-18 19:03 120 3 gusting 6 29.4
2014-Oct-18 18:33 010 0 gusting 6 31.1
2014-Oct-18 18:03 016 1 gusting 7 32.8